Location: ??????
(30.5519°N, 47.7720°E)
Time: 11:36:36
(UTC+00:00)

Cosmos 44 Rocket - Visible Passes

Search period start: 14 May 2021 00:00
Search period end: 24 May 2021 00:00
Orbit: 636 x 754 km, 65.1° (Epoch: 13 May)

Date Brightness Start Highest point End Pass type
(mag) Time Alt. Az. Time Alt. Az. Time Alt. Az.
14 May 6.1 20:34:21 10° N 20:35:40 16° N 20:35:40 16° N visible
15 May 6.2 21:15:24 10° NNW 21:15:55 13° NNW 21:15:55 13° NNW visible
16 May 5.9 20:16:02 10° N 20:17:32 18° N 20:17:32 18° N visible
17 May 6.0 19:17:53 10° NNE 19:19:10 13° NNE 19:19:10 13° NNE visible
17 May 6.2 20:57:24 10° NNW 20:57:52 12° NNW 20:57:52 12° NNW visible
18 May 5.7 19:57:48 10° NNW 19:59:34 20° N 19:59:34 20° N visible
19 May 5.7 18:59:10 10° N 19:01:17 16° NNE 19:01:17 16° NNE visible
19 May 6.2 20:39:30 10° NW 20:39:59 13° NW 20:39:59 13° NW visible
20 May 5.5 19:39:39 10° NNW 19:41:45 24° NNW 19:41:45 24° NNW visible
21 May 5.3 18:40:40 10° N 18:43:34 21° NE 18:43:34 21° NE visible
21 May 6.1 20:21:41 10° NW 20:22:16 13° NW 20:22:16 13° NW visible
22 May 5.1 19:21:33 10° NNW 19:24:07 29° NNW 19:24:07 29° NNW visible
23 May 4.8 18:22:18 10° N 18:26:00 28° NE 18:26:00 28° NE visible
23 May 6.0 20:03:59 10° NW 20:04:42 13° WNW 20:04:42 13° WNW visible
